Previsão horária em Juryzdyka

Hoje, 21 Junho, Segunda-feira

Tempo Temperatura Precipitação Vento Pressão Humidade
00:00 +20°C° 0 mm 3 m/s 748 mmHg 87%
01:00 +19°C° 0 mm 3 m/s 748 mmHg 88%
02:00 +18°C° 0 mm 3 m/s 748 mmHg 88%
03:00 +18°C° 0 mm 2 m/s 748 mmHg 89%
04:00 +18°C° 0 mm 2 m/s 748 mmHg 90%
05:00 +18°C° 0 mm 2 m/s 748 mmHg 92%
06:00 +20°C° 0 mm 3 m/s 748 mmHg 85%
07:00 +22°C° 0 mm 3 m/s 748 mmHg 79%
08:00 +25°C° 0 mm 4 m/s 748 mmHg 73%
09:00 +26°C° 0 mm 4 m/s 748 mmHg 67%
10:00 +28°C° 0 mm 5 m/s 748 mmHg 61%
11:00 +29°C° 0 mm 5 m/s 748 mmHg 55%
12:00 +30°C° 0 mm 5 m/s 747 mmHg 53%
13:00 +30°C° 0 mm 5 m/s 747 mmHg 51%
14:00 +32°C° 0 mm 5 m/s 747 mmHg 49%
15:00 +30°C° 0 mm 5 m/s 746 mmHg 52%
16:00 +30°C° 0 mm 5 m/s 746 mmHg 54%
17:00 +30°C° 0 mm 5 m/s 746 mmHg 56%
18:00 +28°C° 0.1 mm 5 m/s 746 mmHg 62%
19:00 +27°C° 0.1 mm 4 m/s 746 mmHg 69%
20:00 +25°C° 0.1 mm 4 m/s 746 mmHg 75%
21:00 +24°C° 0 mm 3 m/s 746 mmHg 79%
22:00 +23°C° 0 mm 2 m/s 746 mmHg 83%
23:00 +21°C° 0 mm 2 m/s 746 mmHg 87%

Amanhã, 22 Junho, Terça-feira

Tempo Temperatura Precipitação Vento Pressão Humidade
00:00 +21°C° 0 mm 2 m/s 746 mmHg 86%
01:00 +21°C° 0 mm 2 m/s 745 mmHg 86%
02:00 +21°C° 0 mm 2 m/s 745 mmHg 85%
03:00 +21°C° 0 mm 2 m/s 745 mmHg 87%
04:00 +21°C° 0 mm 2 m/s 745 mmHg 89%
05:00 +20°C° 0 mm 2 m/s 745 mmHg 91%
06:00 +23°C° 0 mm 2 m/s 746 mmHg 85%
07:00 +24°C° 0 mm 3 m/s 746 mmHg 79%
08:00 +26°C° 0 mm 3 m/s 746 mmHg 73%
09:00 +27°C° 0.1 mm 3 m/s 746 mmHg 68%
10:00 +28°C° 0.1 mm 4 m/s 746 mmHg 63%
11:00 +29°C° 0.1 mm 4 m/s 746 mmHg 58%
12:00 +30°C° 0 mm 4 m/s 746 mmHg 55%
13:00 +32°C° 0 mm 4 m/s 747 mmHg 52%
14:00 +32°C° 0 mm 4 m/s 747 mmHg 49%
15:00 +31°C° 0 mm 3 m/s 747 mmHg 53%
16:00 +30°C° 0 mm 3 m/s 747 mmHg 57%
17:00 +29°C° 0 mm 2 m/s 747 mmHg 61%
18:00 +28°C° 0 mm 2 m/s 747 mmHg 66%
19:00 +27°C° 0 mm 2 m/s 747 mmHg 70%
20:00 +26°C° 0 mm 2 m/s 747 mmHg 75%
21:00 +26°C° 0 mm 2 m/s 747 mmHg 76%
22:00 +25°C° 0 mm 2 m/s 747 mmHg 78%
23:00 +24°C° 0 mm 2 m/s 748 mmHg 79%

Depois de amanhã, 23 Junho, Quarta-feira

Tempo Temperatura Precipitação Vento Pressão Humidade
00:00 +24°C° 0 mm 1 m/s 748 mmHg 82%
01:00 +23°C° 0 mm 1 m/s 748 mmHg 85%
02:00 +22°C° 0 mm 1 m/s 748 mmHg 89%
03:00 +22°C° 0 mm 1 m/s 748 mmHg 89%
04:00 +21°C° 0 mm 1 m/s 748 mmHg 89%
05:00 +21°C° 0 mm 1 m/s 748 mmHg 90%
06:00 +23°C° 0 mm 1 m/s 749 mmHg 83%
07:00 +25°C° 0 mm 1 m/s 749 mmHg 77%
08:00 +27°C° 0 mm 2 m/s 749 mmHg 71%
09:00 +28°C° 0.3 mm 2 m/s 749 mmHg 67%
10:00 +29°C° 0.3 mm 2 m/s 749 mmHg 64%
11:00 +30°C° 0.3 mm 2 m/s 749 mmHg 60%
12:00 +30°C° 0.7 mm 2 m/s 749 mmHg 59%
13:00 +31°C° 0.7 mm 2 m/s 749 mmHg 58%
14:00 +31°C° 0.7 mm 2 m/s 749 mmHg 57%
15:00 +30°C° 0.8 mm 2 m/s 749 mmHg 62%
16:00 +29°C° 0.8 mm 2 m/s 749 mmHg 68%
17:00 +28°C° 0.8 mm 2 m/s 750 mmHg 73%
18:00 +27°C° 1.8 mm 2 m/s 750 mmHg 80%
19:00 +25°C° 1.8 mm 3 m/s 750 mmHg 86%
20:00 +22°C° 1.8 mm 3 m/s 750 mmHg 93%
21:00 +21°C° 1.3 mm 3 m/s 750 mmHg 94%
22:00 +21°C° 1.3 mm 2 m/s 750 mmHg 95%
23:00 +20°C° 1.3 mm 2 m/s 750 mmHg 96%

24 Junho, Quinta-feira

Tempo Temperatura Precipitação Vento Pressão Humidade
00:00 +20°C° 0.7 mm 2 m/s 750 mmHg 96%
01:00 +19°C° 0.7 mm 2 m/s 750 mmHg 96%
02:00 +20°C° 0.7 mm 1 m/s 750 mmHg 96%
03:00 +20°C° 0.1 mm 1 m/s 750 mmHg 96%
04:00 +20°C° 0.1 mm 1 m/s 750 mmHg 96%
05:00 +20°C° 0.1 mm 1 m/s 750 mmHg 96%
06:00 +21°C° 0 mm 1 m/s 750 mmHg 92%
07:00 +22°C° 0 mm 1 m/s 750 mmHg 88%
08:00 +24°C° 0 mm 1 m/s 751 mmHg 84%
09:00 +25°C° 0 mm 1 m/s 751 mmHg 78%
10:00 +25°C° 0 mm 0 m/s 751 mmHg 72%
11:00 +27°C° 0 mm 0 m/s 751 mmHg 66%
12:00 +27°C° 0.9 mm 0 m/s 750 mmHg 66%
13:00 +29°C° 0.9 mm 1 m/s 750 mmHg 65%
14:00 +30°C° 0.9 mm 1 m/s 750 mmHg 64%
15:00 +29°C° 1.7 mm 1 m/s 750 mmHg 67%
16:00 +29°C° 1.7 mm 1 m/s 750 mmHg 70%
17:00 +28°C° 1.7 mm 1 m/s 750 mmHg 73%
18:00 +27°C° 0.6 mm 1 m/s 750 mmHg 77%
19:00 +26°C° 0.6 mm 1 m/s 749 mmHg 82%
20:00 +25°C° 0.6 mm 2 m/s 749 mmHg 87%
21:00 +24°C° 0 mm 2 m/s 749 mmHg 89%
22:00 +23°C° 0 mm 2 m/s 749 mmHg 92%
23:00 +21°C° 0 mm 2 m/s 749 mmHg 94%

25 Junho, Sexta-feira

Tempo Temperatura Precipitação Vento Pressão Humidade
00:00 +21°C° 0 mm 2 m/s 749 mmHg 95%
01:00 +20°C° 0 mm 2 m/s 749 mmHg 96%
02:00 +20°C° 0 mm 2 m/s 748 mmHg 97%
03:00 +20°C° 0 mm 2 m/s 748 mmHg 97%
04:00 +20°C° 0 mm 2 m/s 748 mmHg 97%
05:00 +19°C° 0 mm 2 m/s 748 mmHg 97%
06:00 +21°C° 0 mm 2 m/s 748 mmHg 93%
07:00 +23°C° 0 mm 2 m/s 748 mmHg 89%
08:00 +24°C° 0 mm 2 m/s 747 mmHg 85%
09:00 +25°C° 1.5 mm 2 m/s 747 mmHg 85%
10:00 +25°C° 1.5 mm 2 m/s 747 mmHg 85%
11:00 +25°C° 1.5 mm 2 m/s 747 mmHg 85%
12:00 +26°C° 0.1 mm 2 m/s 746 mmHg 79%
13:00 +27°C° 0.1 mm 2 m/s 746 mmHg 73%
14:00 +28°C° 0.1 mm 2 m/s 746 mmHg 67%
15:00 +26°C° 5.9 mm 3 m/s 746 mmHg 75%
16:00 +23°C° 5.9 mm 5 m/s 745 mmHg 83%
17:00 +21°C° 5.9 mm 6 m/s 744 mmHg 92%
18:00 +20°C° 2 mm 4 m/s 745 mmHg 93%
19:00 +19°C° 2 mm 3 m/s 745 mmHg 94%
20:00 +20°C° 2 mm 1 m/s 745 mmHg 95%
21:00 +19°C° 0.1 mm 1 m/s 745 mmHg 95%
22:00 +18°C° 0.1 mm 2 m/s 744 mmHg 96%
23:00 +18°C° 0.1 mm 2 m/s 744 mmHg 97%

26 Junho, Sábado

Tempo Temperatura Precipitação Vento Pressão Humidade
00:00 +18°C° 0.1 mm 2 m/s 744 mmHg 97%
01:00 +18°C° 0.1 mm 2 m/s 744 mmHg 97%
02:00 +18°C° 0.1 mm 2 m/s 744 mmHg 98%
03:00 +18°C° 0.1 mm 3 m/s 744 mmHg 98%
04:00 +18°C° 0.1 mm 3 m/s 744 mmHg 98%
05:00 +18°C° 0.1 mm 3 m/s 744 mmHg 98%
06:00 +17°C° 0 mm 4 m/s 744 mmHg 97%
07:00 +17°C° 0 mm 4 m/s 745 mmHg 97%
08:00 +16°C° 0 mm 5 m/s 745 mmHg 96%
09:00 +16°C° 0 mm 5 m/s 745 mmHg 93%
10:00 +16°C° 0 mm 5 m/s 745 mmHg 90%
11:00 +16°C° 0 mm 5 m/s 746 mmHg 87%
12:00 +17°C° 0 mm 5 m/s 746 mmHg 80%
13:00 +20°C° 0 mm 5 m/s 746 mmHg 74%
14:00 +21°C° 0 mm 6 m/s 746 mmHg 68%
15:00 +21°C° 0 mm 6 m/s 746 mmHg 68%
16:00 +21°C° 0 mm 5 m/s 746 mmHg 68%
17:00 +21°C° 0 mm 5 m/s 746 mmHg 69%
18:00 +20°C° 0 mm 5 m/s 746 mmHg 74%
19:00 +17°C° 0 mm 5 m/s 746 mmHg 79%
20:00 +17°C° 0 mm 4 m/s 746 mmHg 84%
21:00 +17°C° 0 mm 4 m/s 746 mmHg 86%
22:00 +15°C° 0 mm 4 m/s 746 mmHg 88%
23:00 +15°C° 0 mm 4 m/s 746 mmHg 90%
Mostrar mais

Necessitamos do seu Consentimento

A Meteoprog e os seus Fornecedores de Serviços podem armazenar e aceder a dados pessoais como cookies, identificadores do dispositivo ou outras tecnologias semelhantes existentes no seu dispositivo e processar estes dados para personalizar conteúdos e anúncios, assim como funcionalidades nas redes sociais e análise de tráfego.

  • Armazenar e/ou aceder a informações no seu dispositivo

    Os cookies, identificadores do dispositivo ou outras informações podem ser armazenados ou acedidos no seu dispositivo, para os fins acima indicados.

  • Anúncios e conteúdos personalizados, medição de anúncios e conteúdos, dados sobre o público-alvo e desenvolvimento de produtos

    Os anúncios e os conteúdos podem ser personalizados com base num perfil. Podem ser adicionados dados adicionais para uma maior personalização dos anúncios e dos conteúdos. A eficácia dos anúncios e dos conteúdos pode ser medida. Podem ser obtidas informações sobre o público que visualizou os anúncios e os conteúdos. Estes dados podem ser usados para desenvolver ou melhorar sistemas, softwares ou a experiência do utilizador.

Ao clicar em "Eu concordo”, permitirá o uso de cookies, identificadores do dispositivo e web beacons mencionados ou outras tecnologias semelhantes. As configurações do navegador do seu dispositivo podem ser alteradas.

Para certos fins, podem ser invocados interesses legítimos ao invés de consentimento. Pode ler mais informação sobre este assunto na nossa Política de Privacidade e Cookies.